Change the Weather History Date:

Monday, June 23, 2014

  Actual Average Record
Temperature  
Mean Temperature 67 °F -  
Max Temperature 79 °F - - ()
Min Temperature 55 °F - - ()
Cooling Degree Days 2    
Growing Degree Days 17 (Base 50)    
Moisture  
Dew Point 60 °F    
Average Humidity 75    
Maximum Humidity 98    
Minimum Humidity 47    
Precipitation  
Precipitation 0.00 in - - ()
Sea Level Pressure  
Sea Level Pressure 29.85 in    
Wind  
Wind Speed 3 mph (West)    
Max Wind Speed 10 mph    
Max Gust Speed -    
Visibility 9 miles    
Events Fog    
T = Trace of Precipitation, MM = Missing Value Source: NWS Daily Summary

Daily Weather History Graph

Daily Weather History Graph

Search for Another Location

Airport or City:

Trip Planner

Search our weather history database for the weather conditions in past years. The results will help you decide how hot, cold, wet, or windy it might be!

Date:

Astronomy

Jun. 23, 2014 Rise Set
Actual Time 5:19 AM CDT 9:03 PM CDT
Civil Twilight 4:41 AM CDT 9:41 PM CDT
Nautical Twilight 3:49 AM CDT 10:33 PM CDT
Astronomical Twilight 2:38 AM CDT 11:44 PM CDT
Moon 2:55 AM CDT (6/23) 5:37 PM CDT (6/23)
Length of Visible Light 17h 00m
Length of Day
15h 43m
Waning Crescent, 13% of the Moon is Illuminated
Jun 23
Waning Crescent
Jun 27
New
Jul 5
First Quarter
Jul 12
Full
Jul 18
Last Quarter

Hourly Weather History & Observations

Time (CDT) Temp. Dew Point Humidity Pressure Visibility Wind Dir Wind Speed Gust Speed Precip Events Conditions
12:10 AM 65.5 °F 64.4 °F 96% 29.83 in 10.0 mi ESE 3.5 mph - N/A   Clear
12:30 AM 65.3 °F 64.2 °F 96% 29.84 in 10.0 mi Calm Calm - N/A   Clear
12:50 AM 64.2 °F 63.0 °F 96% 29.83 in 10.0 mi SE 3.5 mph - N/A   Clear
1:10 AM 63.5 °F 62.2 °F 96% 29.84 in 10.0 mi Calm Calm - N/A   Clear
1:50 AM 63.1 °F 61.2 °F 93% 29.84 in 10.0 mi SE 4.6 mph - N/A   Clear
2:10 AM 62.8 °F 61.2 °F 94% 29.84 in 10.0 mi SSE 4.6 mph - N/A   Clear
2:30 AM 63.0 °F 61.3 °F 94% 29.84 in 10.0 mi Calm Calm - N/A   Scattered Clouds
2:50 AM 62.4 °F 61.0 °F 95% 29.83 in 10.0 mi Calm Calm - N/A   Scattered Clouds
3:10 AM 61.3 °F 60.1 °F 96% 29.82 in 10.0 mi Calm Calm - N/A   Clear
3:30 AM 59.5 °F 58.6 °F 97% 29.83 in 4.0 mi Calm Calm - N/A   Clear
3:50 AM 59.2 °F 58.3 °F 97% 29.84 in 10.0 mi Calm Calm - N/A   Clear
4:10 AM 59.0 °F 58.3 °F 97% 29.83 in 2.0 mi NE 3.5 mph - N/A   Clear
4:30 AM 57.7 °F 56.8 °F 97% 29.83 in 10.0 mi Calm Calm - N/A   Clear
4:50 AM 57.7 °F 57.2 °F 98% 29.83 in 7.0 mi Calm Calm - N/A   Clear
5:10 AM 56.5 °F 55.8 °F 97% 29.82 in 10.0 mi Calm Calm - N/A   Clear
5:30 AM 55.8 °F 54.9 °F 97% 29.82 in 5.0 mi Calm Calm - N/A   Scattered Clouds
5:50 AM 57.2 °F 55.9 °F 96% 29.83 in 10.0 mi Calm Calm - N/A   Mostly Cloudy
6:10 AM 56.8 °F 55.9 °F 97% 29.85 in 0.2 mi Calm Calm - N/A Fog Fog
6:30 AM 59.0 °F 58.3 °F 97% 29.84 in 0.5 mi Calm Calm - N/A Fog Fog
6:50 AM 60.3 °F 59.5 °F 97% 29.85 in 0.2 mi Calm Calm - N/A Fog Fog
7:10 AM 62.8 °F 62.1 °F 97% 29.84 in 10.0 mi Calm Calm - N/A   Mostly Cloudy
7:30 AM 63.0 °F 62.2 °F 97% 29.85 in 10.0 mi Calm Calm - N/A   Overcast
7:50 AM 64.4 °F 63.3 °F 96% 29.85 in 10.0 mi Calm Calm - N/A   Mostly Cloudy
8:10 AM 65.3 °F 62.8 °F 92% 29.85 in 10.0 mi Calm Calm - N/A   Scattered Clouds
8:30 AM 67.8 °F 64.0 °F 88% 29.84 in 10.0 mi Calm Calm - N/A   Clear
8:50 AM 69.3 °F 63.9 °F 83% 29.85 in 10.0 mi Calm Calm - N/A   Clear
9:10 AM 71.2 °F 63.5 °F 76% 29.85 in 10.0 mi Calm Calm - N/A   Clear
9:50 AM 73.6 °F 63.7 °F 71% 29.86 in 10.0 mi NE 3.5 mph - N/A   Mostly Cloudy
10:10 AM 74.7 °F 63.5 °F 68% 29.86 in 10.0 mi West 3.5 mph - N/A   Mostly Cloudy
10:30 AM 72.9 °F 63.1 °F 71% 29.86 in 10.0 mi Calm Calm - N/A   Mostly Cloudy
10:50 AM 74.1 °F 64.0 °F 71% 29.86 in 10.0 mi NW 4.6 mph - N/A   Mostly Cloudy
11:10 AM 75.2 °F 64.6 °F 69% 29.86 in 10.0 mi WNW 6.9 mph - N/A   Mostly Cloudy
11:30 AM 76.1 °F 65.1 °F 69% 29.86 in 10.0 mi WNW 5.8 mph - N/A   Scattered Clouds
11:50 AM 76.3 °F 63.9 °F 65% 29.86 in 10.0 mi West 6.9 mph - N/A   Scattered Clouds
12:10 PM 77.0 °F 63.5 °F 63% 29.85 in 10.0 mi West 8.1 mph - N/A   Scattered Clouds
12:30 PM 76.6 °F 63.9 °F 65% 29.86 in 10.0 mi West 8.1 mph - N/A   Clear
12:50 PM 77.9 °F 62.6 °F 59% 29.86 in 10.0 mi West 6.9 mph - N/A   Scattered Clouds
1:10 PM 77.9 °F 61.2 °F 56% 29.86 in 10.0 mi West 6.9 mph - N/A   Clear
1:30 PM 79.0 °F 58.3 °F 49% 29.86 in 10.0 mi WSW 5.8 mph - N/A   Clear
1:50 PM 79.3 °F 57.2 °F 47% 29.86 in 10.0 mi WNW 6.9 mph - N/A   Clear
2:10 PM 79.2 °F 57.6 °F 47% 29.86 in 10.0 mi WSW 8.1 mph - N/A   Clear
2:30 PM 79.0 °F 57.7 °F 48% 29.86 in 10.0 mi West 5.8 mph - N/A   Clear
2:50 PM 78.1 °F 58.5 °F 51% 29.86 in 10.0 mi West 8.1 mph - N/A   Scattered Clouds
3:10 PM 79.2 °F 59.0 °F 50% 29.86 in 10.0 mi West 9.2 mph - N/A   Mostly Cloudy
3:30 PM 78.8 °F 58.8 °F 50% 29.86 in 10.0 mi West 9.2 mph - N/A   Scattered Clouds
3:50 PM 78.8 °F 59.4 °F 51% 29.86 in 10.0 mi West 10.4 mph - N/A   Scattered Clouds
4:10 PM 76.5 °F 59.4 °F 55% 29.86 in 10.0 mi West 8.1 mph - N/A   Scattered Clouds
4:30 PM 77.5 °F 58.5 °F 52% 29.85 in 10.0 mi NW 10.4 mph - N/A   Scattered Clouds
4:50 PM 77.7 °F 58.3 °F 51% 29.85 in 10.0 mi West 5.8 mph - N/A   Clear
5:10 PM 77.9 °F 58.1 °F 50% 29.85 in 10.0 mi WNW 8.1 mph - N/A   Scattered Clouds
5:30 PM 76.8 °F 57.6 °F 51% 29.84 in 10.0 mi West 5.8 mph - N/A   Clear
5:50 PM 76.3 °F 56.7 °F 51% 29.84 in 10.0 mi WNW 5.8 mph - N/A   Clear
6:10 PM 76.5 °F 57.9 °F 53% 29.83 in 10.0 mi West 4.6 mph - N/A   Clear
6:30 PM 75.9 °F 58.3 °F 54% 29.83 in 10.0 mi West 5.8 mph - N/A   Clear
6:50 PM 75.2 °F 58.6 °F 56% 29.83 in 10.0 mi West 5.8 mph - N/A   Clear
7:10 PM 75.2 °F 59.0 °F 57% 29.83 in 10.0 mi West 4.6 mph - N/A   Clear
7:30 PM 74.3 °F 59.9 °F 61% 29.84 in 10.0 mi West 3.5 mph - N/A   Clear
7:50 PM 73.6 °F 60.1 °F 63% 29.84 in 10.0 mi West 3.5 mph - N/A   Clear
8:10 PM 72.7 °F 60.3 °F 65% 29.84 in 10.0 mi Calm Calm - N/A   Clear
8:30 PM 71.4 °F 61.7 °F 71% 29.85 in 10.0 mi Calm Calm - N/A   Clear
8:50 PM 69.4 °F 61.7 °F 76% 29.85 in 10.0 mi Calm Calm - N/A   Clear
9:10 PM 68.0 °F 61.7 °F 80% 29.86 in 10.0 mi Calm Calm - N/A   Clear
9:30 PM 67.5 °F 60.4 °F 78% 29.86 in 10.0 mi Calm Calm - N/A   Clear
10:10 PM 65.8 °F 59.9 °F 81% 29.87 in 10.0 mi Calm Calm - N/A   Clear
10:30 PM 66.2 °F 59.7 °F 80% 29.87 in 10.0 mi Calm Calm - N/A   Clear
10:50 PM 66.0 °F 60.3 °F 82% 29.88 in 10.0 mi Calm Calm - N/A   Scattered Clouds
11:10 PM 64.6 °F 60.3 °F 86% 29.87 in 10.0 mi Calm Calm - N/A   Clear
11:30 PM 63.0 °F 59.9 °F 90% 29.87 in 10.0 mi Calm Calm - N/A   Clear
11:50 PM 61.9 °F 59.9 °F 93% 29.88 in 10.0 mi Calm Calm - N/A   Clear